User: anonymous   Login
Location: Asheville, NC
(35.6000°N, 82.5500°W)
Time: 16:40:32
(UTC-05:00)
Language:

Oscar 19 - Orbit

View from above orbital plane
View from above orbital plane
View from above satellite
View from above satellite

Ground track
Ground track

The orbit data is extracted from the following two-line orbital elements,

1 20442U 90005G   18019.05795335 -.00000005  00000-0  14483-4 0  9992
2 20442  98.5974 318.5796 0010870 227.0751 132.9521 14.32884442462538
Epoch (UTC): 19 January 2018 01:23:27
Eccentricity: 0.0010870
inclination: 98.5974°
perigee height: 774 km
apogee height: 790 km
right ascension of ascending node: 318.5796°
argument of perigee: 227.0751°
revolutions per day: 14.32884442
mean anomaly at epoch: 132.9521°
orbit number at epoch: 46253

The dashed part of the orbit path shows where the satellite is in the earth's shadow,  

DLR